#timestamp,LO_Frequency,Hit,StdDev 
1567746015.4,286046994.9,N
1567746035.2,286046994.9,N
1567746055.0,286046996.8,N
1567746055.9,286046996.8,N
1567746075.8,286046996.5,N
1567746095.6,286046996.5,N
1567746115.5,286046996.7,N
1567746135.3,286046996.8,N
1567746155.1,286046997.8,N
1567746175.9,286046998.0,N
1567746195.7,286046996.8,N
1567746215.5,286046996.5,N
1567746235.4,286046999.4,N
1567746255.2,286046998.3,N
1567746275.1,286046998.9,N
1567746276.0,286046998.9,N
1567746295.8,286046998.3,N
1567746315.6,286046998.2,N
1567746335.5,286046998.2,N
1567746355.3,286046998.4,N
1567746375.2,286046998.7,N
1567746395.9,286046996.9,N
1567746415.7,286046998.8,N
1567746435.6,286046999.0,N
1567746455.4,286046999.4,N
1567746475.2,286046999.5,N
1567746495.1,286046998.8,N
1567746496.0,286046998.8,N
1567746515.8,286046998.2,N
1567746535.7,286046998.3,N
1567746555.5,286046998.3,N
1567746575.3,286046998.8,N
1567746595.2,286046998.8,N
1567746615.0,286046999.5,N
1567746615.9,286046999.5,N
1567746635.8,286046996.6,Y
1567746655.6,286047001.1,P
1567746675.4,286047000.3,N
1567746695.3,286047000.3,N
1567746715.1,286047000.6,N
1567746735.9,286047000.1,N
1567746755.7,286047000.3,N
1567746775.5,286047000.3,N
1567746795.4,286047002.2,N
1567746815.2,286047002.6,N
1567746835.0,286047001.8,N
1567746835.9,286047001.8,N
1567746855.8,286047002.7,N
1567746875.6,286047002.4,N
1567746895.5,286047002.2,N
1567746915.3,286047002.3,N
1567746935.1,286047000.6,N
1567746955.9,286047000.0,N
1567746975.7,286047011.9,Y
1567746995.6,286047000.9,P
1567747015.4,286047000.3,N
1567747035.2,286047001.1,P
1567747055.1,286046999.4,N
1567747056.0,286046999.4,N
1567747075.8,286046996.6,Y
1567747095.6,286046997.1,P
1567747115.5,286046999.2,N
1567747135.3,286046999.4,N
1567747155.2,286047001.1,N
1567747175.9,286046998.1,N
1567747195.7,286046998.8,N
1567747215.6,286047001.1,N
1567747235.4,286046998.1,N
1567747255.2,286046998.6,N
1567747275.1,286046998.5,N
1567747276.0,286046998.5,N
1567747295.8,286046998.2,N
1567747315.7,286047000.7,N
1567747335.5,286047000.4,N
1567747355.4,286047000.9,N
1567747375.2,286047001.2,N
1567747395.0,286047000.7,N
1567747395.9,286047000.7,N
1567747415.8,286047000.8,N
1567747435.6,286047001.2,N
1567747455.4,286046998.2,N
1567747475.3,286047001.0,N
1567747495.1,286047000.0,N
1567747515.9,286046998.2,N
1567747535.7,286047001.2,N
1567747555.5,286047000.6,N
1567747575.4,286047001.0,N
1567747595.2,286047000.5,N
1567747615.0,286047002.7,N
1567747616.0,286047002.7,N
1567747635.8,286047000.1,N
1567747655.6,286047002.7,N
1567747675.5,286046999.8,N
1567747695.3,286047002.5,N
1567747715.1,286047000.1,N
1567747735.9,286046999.8,N
1567747755.7,286047002.1,N
1567747775.6,286047000.4,N
1567747795.4,286046999.7,N
1567747815.2,286046999.7,N
1567747835.1,286047000.0,N
1567747836.0,286047000.0,N
1567747855.8,286047000.3,N
1567747875.7,286046999.9,N
1567747895.5,286046999.9,N
1567747915.3,286047000.2,N
1567747935.2,286047000.1,N
1567747955.0,286047000.1,N
1567747955.9,286047000.1,N
1567747975.8,286046999.7,N
1567747995.6,286047000.1,N
1567748015.4,286047000.0,N
1567748035.3,286047002.8,N
1567748055.1,286047002.2,N
1567748075.8,286047002.1,N
1567748125.7,286046999.7,E
1567748135.6,286047002.8,N
1567748155.5,286047002.0,P
1567748175.3,286047002.0,P
1567748195.2,286047001.6,Y
1567748215.9,286047000.0,P
1567748235.7,286047000.8,N
1567748255.6,286046998.7,N
1567748275.4,286047001.2,N
1567748295.2,286047001.0,N
1567748315.1,286047000.9,N
1567748316.0,286047000.9,N
1567748335.8,286047000.8,N
1567748355.7,286046999.9,N
1567748375.5,286047000.0,N
1567748395.4,286047000.3,N
1567748415.2,286047000.3,N
1567748435.0,286047000.8,N
1567748435.9,286047000.8,N
1567748455.8,286047001.1,N
1567748475.6,286046999.0,N
1567748495.5,286046999.4,N
1567748515.3,286046998.9,N
1567748535.1,286046999.1,N
1567748555.9,286046999.3,N
1567748575.7,286046996.9,Y
1567748595.6,286046996.6,P
1567748615.4,286046997.5,N
1567748635.2,286046997.7,N
1567748655.1,286046997.9,N
1567748656.0,286046997.9,N
1567748675.8,286046997.3,N
1567748695.6,286046997.2,N
1567748715.5,286046996.7,Y
1567748735.3,286046998.7,P
1567748755.2,286046998.2,P
1567748775.9,286047000.9,N
1567748795.7,286047001.1,N
1567748815.6,286046998.6,N
1567748835.4,286046998.2,N
1567748855.3,286046998.3,N
1567748875.1,286046998.7,N
1567748876.0,286046998.7,N
1567748895.8,286046998.4,N
1567748915.7,286046998.7,N
1567748935.5,286046999.1,N
1567748955.4,286046999.3,N
1567748975.2,286046999.4,N
1567748995.0,286046997.6,N
1567748995.9,286046997.6,N
1567749015.8,286046997.4,N
1567749035.6,286046997.4,N
1567749055.5,286046999.1,N
1567749075.3,286046996.9,Y
1567749095.1,286046996.9,P
1567749115.9,286046999.0,N
1567749135.7,286046998.2,N
1567749155.5,286047000.2,N
1567749175.4,286046999.7,N
1567749195.2,286047000.6,N
1567749215.1,286047000.5,N
1567749216.0,286047000.5,N
1567749235.8,286047000.6,N
1567749255.6,286046999.7,N
1567749275.5,286047000.1,N
1567749295.3,286047002.7,N
1567749315.2,286047000.9,N
1567749335.0,286047000.9,N
1567749335.9,286047000.9,N
1567749355.7,286047001.1,N
1567749375.6,286047000.3,N
1567749395.4,286047000.5,N
1567749415.3,286046999.9,N
1567749435.1,286047000.5,N
1567749455.8,286047000.2,N
1567749475.7,286047000.6,N
1567749495.5,286046999.7,N
1567749515.4,286047000.1,N
1567749535.2,286047002.4,N
1567749555.0,286047002.8,N
1567749555.9,286047002.8,N
1567749575.8,286047002.5,N
1567749595.6,286047002.4,N
